Showing default

GSAT 9, 42695

Orbit data source: Space-Track

GSAT 9, 42695 is a payload satellite owned by ISRO (IN) in GEO that was launched on Fri, 05 May 2017 UTC via a GSLV MK II launch vehicle from the Sirharikota (SRI). Payloads include a variety of satellites, spacecraft, and rockets equipped with specific instruments for various scientific and technological missions. These include communications satellites like Starlink; space stations such as the ISS; scientific satellites like the Hubble; Earth observation satellites from companies like Planet Labs, Umbra, and HawkEye 360; GPS; miniature CubeSats for education and research; and military/defense satellites.

Not visible in the next 10 days
GSAT 9 details
Identifier
42695, 2017-024A
Orbit
GEO
Last TLE update7 hours ago
Origin
Flag of INISRO (IN / IND)
ManufacturerISRO
MissionOperational Civil Communications
Bus & MotorI2K, ISRO LAM
Mass2,230 kg wet, 976 kg dry
Launch date (UTC)
2017-05-05 (8 years ago)
Launch vehicle
GSLV MK II
Launch site
Sirharikota (SRI)
Object type
Payload
Rocket body
Debris
Shape & HBRBox + 2 Pan, 9.5 m
Radar Cross Section8.526 m², Large (>1 m²)

Expand to show TLE details & history

TLE from 7 hours ago
0 GSAT 9
1 42695U 17024A   24361.54874253 -.00000258  00000-0  00000-0 0  9990
2 42695   0.0189  74.3859 0002109 201.5628 114.4744  1.00272913 27917
Epoch: 2024-12-26T13:10Z
Definitive object data (Epoch: 2024-12-26T13:10:11.354Z)
Latitude-0.00216°
Longitude97.3635°
Altitude35,789.479 km
Speed3.074 km/s
True Right ascension02h 01m 44s
True Declination0° 00' 08"
Sunlit
Object was in daylight at TLE epoch
Visualization TLE readout
Latitude0.02433°
Longitude-157.21623°
Altitude35,792.644 km
Speed3.074 km/s
Apparent Right ascension08h 54m 15s
Apparent Declination-4° 57' 23"
Sunlit
Object is in daylight
Visualization observer readout
Local Sidereal Time19:33:39
Azimuth327.264° NNW
Elevation-50.604°
Doppler factor1
Orbital elements
Apogee altitude35,796.242 km
Perigee altitude35,778.456 km
Semi-major axis42,165.486 km
Eccentricity0.0002109
Inclination0.0189°
RAAN74.3859°
Arg. of periapsis201.5628°
True anomaly114.49639°
Mean anomaly114.4744°
Eccentric anomaly114.4854°
Mean motion0.25067 °/min
BSTARUnknown
Orbital period1436.13 mins
Loading historical data...
42695 neighbors
Authenticating...
Loading maneuver chart data...
Loading historical data...
Loading historical data...
Loading historical data...
Loading historical data...
Loading historical data...
Loading historical data...
Loading historical data...
Other satellites on launch #24 in the year 2017 (2017-05-05 UTC)

GSAT 9 Visibility forecast

Observer location: undefined°, undefined

GSAT 9 is not visible in the next 10 days
Span
Click to sort rows by Start time (UTC) header in descending order
Start Az.
Max El. time (UTC)
Max El. Az.
Max El.
End time (UTC)
End Az.
|